Regional Weather Roundup
Issued by NWS New Orleans/Baton Rouge, LA

Home | Current Version | Previous Version | Text Only | Print | Product List | Glossary Off
Versions: 1 2 3 4 5 6 7 8 9 10 11 12 13 14 15 16 17 18 19 20 21 22 23 24 25 26 27 28 29 30 31 32 33 34 35 36 37 38 39 40 41 42 43 44 45 46 47 48 49 50

998
ASUS44 KLIX 221110
RWRLIX
NEW ORLEANS REGIONAL WEATHER ROUNDUP
NATIONAL WEATHER SERVICE NEW ORLEANS LA
500 AM CST MON DEC 22 2014

NOTE: "FAIR" INDICATES FEW OR NO CLOUDS BELOW 12,000 FEET WITH NO
      SIGNIFICANT WEATHER AND/OR OBSTRUCTIONS TO VISIBILITY.
      SKY/WX - SKY CONDITION AND SIGNIFICANT WEATHER.
      TMP - AIR TEMPERATURE.     DP    - DEWPOINT TEMPERATURE.
      RH  - RELATIVE HUMIDITY.   PRES  - PRESSURE.
      HI  - HEAT INDEX.          WCI   - WIND CHILL INDEX.

*  THESE STATIONS ARE NOT NWS OR FAA STATIONS AND ARE NOT UNDER
   NWS QUALITY CONTROL.

LAZ038-040-048-061>063-065>067-069-221200-
SOUTHEAST LOUISIANA

CITY           SKY/WX    TMP DP  RH WIND       PRES   REMARKS
N.O. AUDUBON     N/A     59  58  99 MISG        N/A
N.O. INTL ARPT CLOUDY    58  56  93 E5        29.86S FOG
N.O. LAKEFRONT CLOUDY    59  56  89 E3        29.88S FOG
N.O. DOWNTOWN* CLOUDY    57  54  88 CALM      29.88R
SLIDELL        CLOUDY    58  56  93 E3        29.85F FOG
BATON ROUGE    FOG       54  53  97 E3        29.85F VSB 1/4
BOOTHVILLE     CLOUDY    63  63 100 S5        29.86F FOG
BELLE CHASSE   LGT RAIN  60  58  92 NE3       29.86S FOG
BOGALUSA*      FOG       57  54  91 CALM      29.89F VSB 1/2
GALLIANO*      DRIZZLE   55  55  99 MISG      29.85F
NEW ROADS*     FOG       53  53  99 CALM      29.86F VSB 1/4
GONZALES*      CLOUDY    57  57 100 CALM      29.85F FOG
HAMMOND*       NOT AVBL
HOUMA*         CLOUDY    58  57  99 NE3       29.84F FOG
PORT FOURCHON* CLOUDY    61  61 100 CALM      29.88S FOG

$$

MSZ070-080>082-221200-
SOUTHERN MISSISSIPPI

CITY           SKY/WX    TMP DP  RH WIND       PRES   REMARKS
MCCOMB         FOG       53  53 100 SE7       29.85F VSB 1/4
GULFPORT       CLOUDY    58  56  93 E6        29.87S
BILOXI         CLOUDY    58  58 100 E5        29.87F
PASCAGOULA     CLOUDY    58  56  93 E3        29.88S

$$

COASTAL OBSERVATIONS
LAKE AND NEARSHORE STATIONS

STATION/POSITION TIME  TEMP    WIND        PRES    WAVE
                       AIR SEA DIR/SP/G            HT/PER
                 (UTC) (F)     (DEG/KT/KT) (MB)    (FT/S)
PASCAGOULA       1100   59      70/ 10/ 13 1011.0
WAVELAND YACHT   1100   58      90/  6/  8 1010.7
GRAND ISLE       1100   61 60   60/  3/  4 1011.0
SOUTHWEST PASS   1100   67                 1011.1
NEW CANAL        1100   58 56   CALM  /  2 1011.7
SHELL BEACH      1100   58 57   70/  9/ 10 1010.5

OFFSHORE STATIONS

STATION/POSITION TIME  TEMP    WIND        PRES    WAVE
                       AIR SEA DIR/SP/G            HT/PER
                 (UTC) (F)     (DEG/KT/KT) (MB)    (FT/S)
64 S DAUPHIN ISL 1100   72 74  140/ 12/ 14 1011.0    3/ 5

$$




USA.gov is the U.S. government's official web portal to all federal, state and local government web resources and services.